Weather History for Winfield, KS

Change the Weather History Date:

Thursday, April 26, 2012

  Actual Average Record
Temperature  
Mean Temperature 74 °F -  
Max Temperature 84 °F 69 °F 84 °F (2012)
Min Temperature 64 °F 47 °F 36 °F (2005)
Cooling Degree Days 9    
Growing Degree Days 24 (Base 50)    
Moisture  
Dew Point 52 °F    
Average Humidity 47    
Maximum Humidity 78    
Minimum Humidity 27    
Precipitation  
Precipitation 0.00 in - - ()
Sea Level Pressure  
Sea Level Pressure 29.85 in    
Wind  
Wind Speed 7 mph (East)    
Max Wind Speed 17 mph    
Max Gust Speed 22 mph    
Visibility 10 miles    
Events      
Averages and records for this station are not official NWS values.
T = Trace of Precipitation, MM = Missing Value Source: NWS Daily Summary

Daily Weather History Graph

Daily Weather History Graph

Search for Another Location

Airport:

Trip Planner

Search our weather history database for the weather conditions in past years. The results will help you decide how hot, cold, wet, or windy it might be!

Date:

Astronomy

Apr. 26, 2012 Rise Set
Actual Time 6:38 AM CDT 8:13 PM CDT
Civil Twilight 6:11 AM CDT 8:41 PM CDT
Nautical Twilight 5:37 AM CDT 9:14 PM CDT
Astronomical Twilight 5:02 AM CDT 9:49 PM CDT
Moon 10:22 AM CDT (4/26) 12:16 AM CDT (4/26)
Length of Visible Light 14h 30m
Length of Day
13h 34m
Waxing Crescent, 24% of the Moon is Illuminated
Apr 26
Waxing Crescent
Apr 29
First Quarter
May 5
Full
May 12
Last Quarter
May 20
New

Hourly Weather History & Observations

Time (CDT) Temp. Dew Point Humidity Pressure Visibility Wind Dir Wind Speed Gust Speed Precip Events Conditions
12:54 AM 73.0 °F 57.9 °F 59% 29.78 in 10.0 mi NE 3.5 mph - N/A   Clear
1:54 AM 64.0 °F 57.0 °F 78% 29.79 in 10.0 mi Calm Calm - N/A   Clear
2:54 AM 64.9 °F 57.0 °F 75% 29.79 in 10.0 mi Calm Calm - N/A   Clear
3:54 AM 66.9 °F 54.0 °F 63% 29.80 in 10.0 mi East 4.6 mph - N/A   Clear
4:54 AM 66.0 °F 48.9 °F 54% 29.81 in 10.0 mi ENE 5.8 mph - N/A   Clear
5:54 AM 66.0 °F 46.9 °F 50% 29.82 in 10.0 mi East 5.8 mph - N/A   Clear
6:54 AM 66.0 °F 46.9 °F 50% 29.85 in 10.0 mi ENE 6.9 mph - N/A   Clear
7:54 AM 66.9 °F 48.0 °F 51% 29.87 in 10.0 mi ENE 8.1 mph - N/A   Clear
8:54 AM 73.9 °F 50.0 °F 43% 29.88 in 10.0 mi East 13.8 mph 21.9 mph N/A   Clear
9:54 AM 75.9 °F 52.0 °F 43% 29.89 in 10.0 mi East 13.8 mph - N/A   Clear
10:54 AM 79.0 °F 50.0 °F 36% 29.90 in 10.0 mi East 12.7 mph 19.6 mph N/A   Clear
11:54 AM 81.0 °F 50.0 °F 34% 29.89 in 10.0 mi East 15.0 mph - N/A   Clear
12:54 PM 84.0 °F 50.0 °F 31% 29.88 in 10.0 mi East 15.0 mph - N/A   Clear
1:54 PM 84.0 °F 46.9 °F 27% 29.88 in 10.0 mi East 17.3 mph 20.7 mph N/A   Clear
2:54 PM 82.0 °F 51.1 °F 34% 29.88 in 10.0 mi East 9.2 mph - N/A   Clear
3:54 PM 84.0 °F 52.0 °F 33% 29.87 in 10.0 mi East 11.5 mph - N/A   Clear
4:54 PM 81.0 °F 50.0 °F 34% 29.87 in 10.0 mi East 10.4 mph - N/A   Clear
5:54 PM 82.0 °F 51.1 °F 34% 29.86 in 10.0 mi ESE 11.5 mph - N/A   Clear
6:54 PM 80.1 °F 51.1 °F 36% 29.85 in 10.0 mi East 10.4 mph - N/A   Clear
7:54 PM 75.9 °F 53.1 °F 45% 29.84 in 10.0 mi East 6.9 mph - N/A   Clear
8:54 PM 73.0 °F 53.1 °F 49% 29.85 in 10.0 mi East 5.8 mph - N/A   Clear
9:54 PM 71.1 °F 54.0 °F 55% 29.85 in 10.0 mi East 5.8 mph - N/A   Clear
10:54 PM 70.0 °F 54.0 °F 57% 29.85 in 10.0 mi East 6.9 mph - N/A   Clear
11:54 PM 70.0 °F 54.0 °F 57% 29.85 in 10.0 mi East 6.9 mph - N/A   Scattered Clouds